OneWeb SL0253

operational
NORAD ID: 48971 Int'l Des: 2021-060 Owner: ONEWEBN Country: UK Constellation: oneweb
LEOCIRCULARPOLARONEWEB_TYPE

About OneWeb SL0253

Description loading...

Live Position

Loading 3D Globe...

Upcoming Passes

Altitude History

Altitude vs Time

uPlot chart will show altitude changes over time

Two-Line Element Set

1 48971U 21060E 25351.28794174 -.00000017 00000-0 -78403-4 0 9992
2 48971 87.9047 264.9958 0001820 69.6488 290.4839 13.16592213215658
Epoch: Dec 17, 2025 • Age: 6 hours

Current Status

Altitude 1200.9 km
Velocity 7.26 km/s
Sub-Earth Point 26.99°N, 160.11°E
Launch Date Jul 1, 2021
Age 4.4 years
Type internet

Technical Details

Classification Payload
Mass 148.00 kg
Dry Mass 140.00 kg
Total Mass 148.00 kg
Length 1.30 m
Diameter 1.00 m
Span 5.00 m
Shape Trapezoid+2 pan
Manufacturer ONEWUS
Bus Type ARROW
Phase Status In Orbit
Owner/State ONEWEBN/UK

Large Constellations

Loading constellations...